SCP
0 0 0 0 0 0 0 0 0 0 0 0 0 0 0 0 0 0 0 0 0 0 0 0 0 0 0 0 0 0 0 0 0 0 0 0 0 0 0 0 0 0 0
0 0 0 0 0 0 0 0 0 0 0 0 0 0 0 0 0 0 0 0 0 0 0 0 0 0 0 0 0 0 0 0 0 0 0 0 0 0 0 0 0 0 0
0 0 0 0 0 0 0 0 0 0 0 0 0 0 0 0 0 0 0 0 0 0 0 0 0 0 0 0 0 0 0 0 0 0 0 0 0 0 0 0 0 0 0
0 0 0 0 0 0 0 0 0 0 0 0 0 0 0 0 0 0 0 0 0 0 0 0 0 0 0 0 0 0 0 0 0 0 0 0 0 0 0 0 0 0 0
0 0 0 0 0 0 0 0 0 0 0 0 0 0 0 0 0 0 0 0 0 0 0 0 0 0 0 0 0 0 0 0 0 0 0 0 0 0 0 0 0 0 0
0 0 0 0 0 0 0 0 0 0 0 0 0 0 0 0 0 0 0 0 0 0 0 0 0 0 0 0 0 0 0 0 0 0 0 0 0 0 0 0 0 0 0
0 0 0 0 0 0 0 0 0 0 0 0 0 0 0 0 0 0 0 0 0 0 0 0 0 0 0 0 0 0 0 0 0 0 0 0 0 0 0 0 0 0 0
0 0 0 0 0 0 0 0 0 0 0 0 0 0 0 0 0 0 0 0 0 0 0 0 0 0 0 0 0 0 0 0 0 0 0 0 0 0 0 0 0 0 0
0 0 0 0 0 0 0 0 0 0 0 0 0 0 0 0 0 0 0 0 0 0 0 0 0 0 0 0 0 0 0 0 0 0 0 0 0 0 0 0 0 0 0
0 0 0 0 0 0 0 0 0 0 0 0 0 0 0 0 0 0 0 0 0 0 0 0 0 -0 0 0 0 0 0 0 0 0 0 0 0 0 0 0 0 0 0
0 0 0 0 0 0 0 0 0 0 0 0 0 0 0 0 0 0 0 0 0 0 0 -0 -0 -0 -0 -0 -0 -0 0 0 0 0 0 0 0 0 0 0 0 0 0
0 0 0 0 0 0 0 0 0 0 0 0 0 0 0 0 0 0 0 0 0 0 0 0 0 -0 -0 -0 0 0 0 0 0 0 0 0 0 0 0 0 0 0 0
0 0 0 0 0 0 0 0 0 0 0 0 0 0 0 0 0 0 0 0 0 0 0 0 0 0 0 0 0 0 0 0 0 0 0 0 0 0 0 0 0 0 0
0 0 0 0 0 0 0 0 0 0 0 0 0 0 0 0 0 0 0 0 0 0 0 0 0 0 0 0 0 0 0 0 0 0 0 0 0 0 0 0 0 0 0
0 0 0 0 0 0 0 0 0 0 0 0 0 0 0 0 0 0 0 0 0 0 0 -0 0 0 0 0 -0 0 0 0 0 0 0 0 0 0 0 0 0 0 0
0 0 0 0 0 0 0 0 0 0 0 0 0 0 0 0 0 0 0 0 0 0 0 0 0 0 0 -0 -0 0 0 0 0 0 0 0 0 0 0 0 0 0 0
0 0 0 0 0 0 0 0 0 0 0 0 0 0 0 0 0 0 0 0 0 0 0 0 0 0 -0 -0 0 0 0 0 0 0 0 0 0 0 0 0 0 0 0
0 0 0 0 0 0 0 0 0 0 0 0 0 0 0 0 0 0 0 0 0 0 0 0 0 0 -0 -0 -0 0 0 0 0 0 0 0 0 0 0 0 0 0 0
0 0 0 0 0 0 0 0 0 0 0 0 0 0 0 0 0 0 0 0 0 0 0 0 0 0 0 -0 0 0 0 0 0 0 0 0 0 0 0 0 0 0 0
0 0 0 0 0 0 0 0 0 0 0 0 0 0 0 0 0 0 0 0 0 0 0 0 0 0 0 0 0 0 0 0 0 0 0 0 0 0 0 0 0 0 0
0 0 0 0 0 0 0 0 0 0 0 0 0 0 0 0 0 0 0 0 0 0 0 0 0 0 0 0 0 0 0 0 0 0 0 0 0 0 0 0 0 0 0
0 0 0 0 0 0 0 0 0 0 0 0 0 0 0 0 0 0 0 0 0 0 0 0 0 0 0 0 0 0 0 0 0 0 0 0 0 0 0 0 0 0 0
0 0 0 0 0 0 0 0 0 0 0 0 0 0 0 0 0 0 0 0 0 0 0 0 0 0 0 0 0 0 0 0 0 0 0 0 0 0 0 0 0 0 0
0 0 0 0 0 0 0 0 0 0 0 0 0 0 0 0 0 0 0 0 0 0 0 0 0 0 0 0 0 0 0 0 0 0 0 0 0 0 0 0 -0 -0 0
0 0 0 0 0 0 0 0 0 0 0 0 0 0 0 0 0 0 0 0 0 0 0 0 0 0 0 0 0 0 0 0 0 0 0 0 0 0 0 0 0 0 0
0 0 0 0 0 0 0 0 0 0 0 0 0 0 0 0 0 0 0 0 0 0 0 0 0 0 0 0 0 0 0 0 0 0 0 0 0 0 0 0 0 0 0
Wind_Speed_500mb
34 27 20 18 10 6 15 6 4 4 2 6 8 13 15 16 17 16 15 12 11 8 14 17 23 31 36 36 32 29 22 18 18 17 17 22 26 35 38 37 34 32 31
36 24 29 21 12 6 12 9 12 10 3 6 11 13 13 14 17 19 20 19 17 17 18 21 22 22 23 25 30 36 32 32 24 26 25 25 17 21 23 32 39 41 39
38 34 39 24 16 8 16 11 12 8 6 8 8 7 11 17 24 27 28 29 28 27 25 24 26 27 27 29 30 32 39 34 33 30 29 29 24 29 27 24 28 30 41
45 42 34 24 17 19 16 15 13 8 6 2 11 13 17 20 24 25 25 24 25 26 27 29 28 29 30 31 32 32 35 36 36 36 35 33 32 30 31 35 32 29 20
50 45 30 20 20 19 16 14 13 9 11 18 21 24 22 20 19 19 19 21 25 27 30 32 34 33 34 35 36 36 36 37 38 38 39 42 41 40 40 41 44 44 43
34 23 23 26 25 19 21 17 13 19 21 23 24 21 18 15 13 10 13 17 27 33 37 38 37 37 37 37 38 38 39 41 42 40 40 43 45 48 49 48 48 48 50
32 34 33 31 30 27 21 21 21 25 29 25 20 18 14 10 4 8 12 15 30 39 40 40 41 42 42 43 42 42 42 43 44 47 51 55 56 54 55 54 52 51 52
36 32 32 35 31 27 25 25 21 26 28 25 11 7 7 7 9 14 9 18 32 38 40 43 43 46 50 52 52 51 50 50 51 52 55 58 60 61 63 62 63 59 58
36 33 34 34 32 30 33 30 25 18 19 18 14 7 5 4 9 9 14 19 35 39 43 45 50 50 55 56 55 55 60 64 64 65 66 67 68 69 69 69 69 68 65
43 39 39 38 38 36 32 29 26 21 16 14 14 9 6 2 5 3 10 20 34 42 49 52 55 60 61 58 59 66 67 67 68 70 71 74 75 76 76 73 68 66 65
43 45 44 43 38 33 28 22 17 13 11 6 6 6 9 11 18 18 17 43 45 51 55 59 62 64 63 69 78 81 80 78 76 75 75 74 74 76 76 73 72 69 64
54 51 47 41 36 31 25 20 16 13 10 6 6 9 12 17 22 26 37 46 50 52 54 57 63 63 71 76 76 79 81 82 83 83 81 80 79 76 71 67 65 64 63
65 60 52 45 38 31 25 21 17 13 8 6 7 10 14 17 22 27 33 41 50 56 56 59 59 67 75 75 80 82 82 82 82 81 80 80 78 70 66 66 66 66 67
67 61 53 44 36 30 25 20 14 10 8 6 7 9 12 16 20 26 33 43 51 52 55 56 65 71 70 72 75 77 80 81 83 83 82 78 71 65 65 66 66 65 63
66 59 50 42 36 30 24 19 14 10 8 5 6 8 9 13 19 26 31 38 44 45 53 55 66 72 77 79 78 79 77 77 78 78 79 77 68 64 64 64 65 64 65
65 58 50 42 36 29 24 20 15 11 7 5 5 5 9 13 19 24 32 37 43 47 41 61 70 76 80 80 79 79 79 78 74 73 73 72 65 66 68 67 66 64 61
63 56 48 42 35 30 26 19 15 11 9 6 5 2 4 11 18 24 29 34 38 43 53 63 66 72 76 78 79 78 81 85 87 81 77 71 68 69 68 68 66 64 64
61 54 48 43 38 32 26 21 15 12 10 8 7 3 4 10 17 22 26 30 35 41 48 58 66 70 74 79 84 90 91 88 87 88 86 79 69 68 65 63 64 65 63
64 58 51 44 37 31 25 22 18 14 14 12 9 5 4 8 14 20 24 29 33 39 45 54 63 68 75 79 84 85 89 91 93 92 90 87 75 69 67 66 65 64 63
67 61 52 44 37 32 27 21 16 18 18 18 14 9 7 8 14 20 24 30 34 39 43 50 59 68 72 75 77 85 95 94 99 97 91 87 84 76 70 67 62 62 59
67 59 54 48 40 33 26 16 20 23 23 21 18 14 12 13 15 20 26 31 35 38 42 50 57 63 66 72 75 82 89 97 101 90 97 94 90 85 79 71 68 59 58
69 61 55 47 42 34 20 21 26 27 26 25 23 20 20 21 21 25 31 34 37 36 41 46 53 58 60 62 71 77 84 93 101 93 100 101 87 83 78 71 61 60 59
71 66 58 50 42 31 24 28 31 29 29 29 28 28 27 29 29 30 36 37 36 37 39 42 51 50 57 59 66 75 78 82 88 93 92 104 83 84 80 81 75 65 59
75 67 59 52 45 37 31 36 35 35 34 34 33 34 35 35 37 38 39 41 44 42 44 49 50 49 51 56 60 65 72 80 86 87 82 88 93 93 92 85 69 50 44
77 70 62 56 48 46 36 42 43 39 38 39 39 40 42 42 45 45 46 50 50 47 49 53 49 46 52 53 55 65 66 74 88 91 71 73 91 98 95 83 69 70 71
79 74 67 60 54 53 40 51 50 43 43 43 44 46 48 49 50 50 52 52 53 53 59 61 57 55 54 55 55 55 59 66 72 84 73 80 85 82 68 68 88 84 79
Wind_Direction_500mb
223 205 208 204 195 285 304 271 304 262 345 340 348 358 0 7 10 14 20 26 41 23 15 22 29 34 33 29 22 15 355 316 297 304 319 5 355 342 342 330 329 330 331
219 228 217 198 213 254 291 259 294 256 294 6 341 352 7 28 33 45 54 56 51 39 32 27 22 15 21 20 28 32 27 8 311 293 294 290 310 320 336 335 332 327 321
234 219 208 203 215 231 276 251 271 238 291 318 329 54 65 64 74 76 76 75 71 63 52 44 36 27 17 9 3 14 18 340 338 332 335 327 292 294 285 301 324 328 322
221 215 220 210 237 272 237 245 236 227 259 151 121 107 97 94 88 83 80 73 62 52 40 31 22 15 9 6 2 2 357 351 345 341 331 319 310 295 285 281 279 284 307
210 206 209 248 250 228 238 222 208 220 171 146 133 119 108 101 92 83 68 51 36 23 14 8 1 356 352 349 345 344 342 338 338 337 331 324 319 310 300 287 275 273 277
196 209 232 235 223 219 207 207 214 172 158 147 137 130 118 103 86 65 38 26 13 5 1 357 355 354 350 346 342 338 333 328 323 323 322 316 313 310 309 305 294 282 275
234 228 228 217 210 201 205 182 185 170 156 152 150 139 134 120 66 353 2 8 1 0 357 354 353 350 348 346 342 338 334 329 325 321 317 313 310 307 305 302 299 299 292
218 210 210 193 189 195 191 168 171 169 164 165 178 178 196 266 297 313 328 344 353 353 351 351 348 347 345 343 341 337 334 331 326 320 315 312 311 308 304 301 298 296 295
198 201 195 191 185 185 172 159 153 157 170 171 182 208 206 222 298 292 316 340 347 350 352 350 347 348 345 342 338 334 332 327 322 318 316 312 307 305 304 303 300 297 296
192 193 189 181 174 168 168 166 158 160 153 156 150 146 134 75 20 303 309 329 350 354 353 350 348 346 345 343 338 331 330 328 324 321 317 313 311 308 305 304 305 305 302
188 184 180 175 175 175 173 167 161 159 150 139 115 84 39 18 10 3 343 341 347 354 353 347 346 345 345 341 337 335 335 331 327 323 320 316 313 310 308 304 304 305 307
183 179 177 178 179 176 171 168 165 164 159 139 81 51 30 22 8 5 352 345 345 345 345 344 342 344 340 339 336 331 332 329 327 325 321 319 315 312 309 311 310 308 305
183 181 182 181 181 179 174 172 168 162 142 103 65 38 24 14 8 360 353 347 344 342 343 343 342 340 341 338 334 333 332 328 326 324 321 318 316 317 317 315 312 310 305
184 182 182 182 181 180 179 175 171 161 129 94 53 40 28 19 8 359 355 350 346 341 339 342 340 340 338 337 335 332 329 327 325 323 323 319 318 321 318 316 311 305 305
185 184 184 184 184 182 176 171 168 160 142 109 70 43 30 16 4 356 351 347 345 339 334 337 335 339 338 339 339 336 333 329 328 325 323 322 323 322 319 316 313 309 306
189 187 186 186 185 180 178 176 174 168 151 124 85 56 29 8 360 351 349 345 343 338 330 333 338 339 339 340 339 336 334 331 330 330 326 322 321 318 315 313 312 309 307
192 191 189 189 187 185 183 183 179 173 169 176 161 125 16 351 348 348 346 344 341 339 334 337 339 339 339 338 337 337 336 337 336 334 331 327 319 315 313 311 308 307 304
195 195 193 191 189 187 186 179 182 188 196 200 197 191 335 345 347 349 346 345 343 339 335 337 340 340 341 342 340 339 339 340 337 336 334 327 318 314 311 310 308 304 303
197 195 195 192 190 188 185 181 188 201 209 213 219 242 301 340 349 348 348 345 341 341 337 333 335 342 343 342 338 336 334 336 337 337 334 332 322 317 312 308 308 303 301
200 198 193 191 189 187 185 187 206 220 219 222 226 240 278 323 341 344 343 341 341 339 333 333 338 341 341 340 334 334 333 335 333 336 337 333 329 322 316 311 308 308 307
200 198 194 190 189 188 186 206 231 227 229 231 235 246 267 291 315 331 334 337 337 332 334 336 336 336 335 333 332 332 330 331 332 339 334 332 330 329 328 324 321 317 312
200 197 196 196 192 190 202 232 232 235 237 237 242 252 265 276 299 313 319 324 327 332 331 326 329 327 326 327 329 328 329 330 329 338 330 328 334 331 330 325 318 312 308
202 201 200 197 195 198 213 234 238 244 245 247 250 258 267 277 289 300 306 312 318 324 323 315 316 319 319 326 324 325 325 323 322 328 330 327 337 329 331 328 324 321 313
208 205 203 201 198 232 217 239 243 248 252 254 256 261 268 275 284 291 297 302 311 316 318 313 314 316 316 320 318 318 319 318 318 326 335 324 334 328 328 330 336 333 323
210 211 210 206 222 242 224 240 245 250 257 261 262 265 269 276 281 290 298 301 305 309 310 306 303 306 312 315 316 314 319 320 322 325 337 328 329 327 327 329 335 328 327
217 215 213 226 234 248 225 242 247 252 260 267 269 270 274 277 282 287 291 294 298 305 303 302 309 311 312 314 315 314 319 320 323 323 329 328 328 333 324 325 322 328 330
Wind_Speed_850mb
34 27 20 18 10 6 15 6 4 4 2 6 8 13 15 16 17 16 15 12 11 8 14 17 23 31 36 36 32 29 22 18 18 17 17 22 26 35 38 37 34 32 31
36 24 29 21 12 6 12 9 12 10 3 6 11 13 13 14 17 19 20 19 17 17 18 21 22 22 23 25 30 36 32 32 24 26 25 25 17 21 23 32 39 41 39
38 34 39 24 16 8 16 11 12 8 6 8 8 7 11 17 24 27 28 29 28 27 25 24 26 27 27 29 30 32 39 34 33 30 29 29 24 29 27 24 28 30 41
45 42 34 24 17 19 16 15 13 8 6 2 11 13 17 20 24 25 25 24 25 26 27 29 28 29 30 31 32 32 35 36 36 36 35 33 32 30 31 35 32 29 20
50 45 30 20 20 19 16 14 13 9 11 18 21 24 22 20 19 19 19 21 25 27 30 32 34 33 34 35 36 36 36 37 38 38 39 42 41 40 40 41 44 44 43
34 23 23 26 25 19 21 17 13 19 21 23 24 21 18 15 13 10 13 17 27 33 37 38 37 37 37 37 38 38 39 41 42 40 40 43 45 48 49 48 48 48 50
32 34 33 31 30 27 21 21 21 25 29 25 20 18 14 10 4 8 12 15 30 39 40 40 41 42 42 43 42 42 42 43 44 47 51 55 56 54 55 54 52 51 52
36 32 32 35 31 27 25 25 21 26 28 25 11 7 7 7 9 14 9 18 32 38 40 43 43 46 50 52 52 51 50 50 51 52 55 58 60 61 63 62 63 59 58
36 33 34 34 32 30 33 30 25 18 19 18 14 7 5 4 9 9 14 19 35 39 43 45 50 50 55 56 55 55 60 64 64 65 66 67 68 69 69 69 69 68 65
43 39 39 38 38 36 32 29 26 21 16 14 14 9 6 2 5 3 10 20 34 42 49 52 55 60 61 58 59 66 67 67 68 70 71 74 75 76 76 73 68 66 65
43 45 44 43 38 33 28 22 17 13 11 6 6 6 9 11 18 18 17 43 45 51 55 59 62 64 63 69 78 81 80 78 76 75 75 74 74 76 76 73 72 69 64
54 51 47 41 36 31 25 20 16 13 10 6 6 9 12 17 22 26 37 46 50 52 54 57 63 63 71 76 76 79 81 82 83 83 81 80 79 76 71 67 65 64 63
65 60 52 45 38 31 25 21 17 13 8 6 7 10 14 17 22 27 33 41 50 56 56 59 59 67 75 75 80 82 82 82 82 81 80 80 78 70 66 66 66 66 67
67 61 53 44 36 30 25 20 14 10 8 6 7 9 12 16 20 26 33 43 51 52 55 56 65 71 70 72 75 77 80 81 83 83 82 78 71 65 65 66 66 65 63
66 59 50 42 36 30 24 19 14 10 8 5 6 8 9 13 19 26 31 38 44 45 53 55 66 72 77 79 78 79 77 77 78 78 79 77 68 64 64 64 65 64 65
65 58 50 42 36 29 24 20 15 11 7 5 5 5 9 13 19 24 32 37 43 47 41 61 70 76 80 80 79 79 79 78 74 73 73 72 65 66 68 67 66 64 61
63 56 48 42 35 30 26 19 15 11 9 6 5 2 4 11 18 24 29 34 38 43 53 63 66 72 76 78 79 78 81 85 87 81 77 71 68 69 68 68 66 64 64
61 54 48 43 38 32 26 21 15 12 10 8 7 3 4 10 17 22 26 30 35 41 48 58 66 70 74 79 84 90 91 88 87 88 86 79 69 68 65 63 64 65 63
64 58 51 44 37 31 25 22 18 14 14 12 9 5 4 8 14 20 24 29 33 39 45 54 63 68 75 79 84 85 89 91 93 92 90 87 75 69 67 66 65 64 63
67 61 52 44 37 32 27 21 16 18 18 18 14 9 7 8 14 20 24 30 34 39 43 50 59 68 72 75 77 85 95 94 99 97 91 87 84 76 70 67 62 62 59
67 59 54 48 40 33 26 16 20 23 23 21 18 14 12 13 15 20 26 31 35 38 42 50 57 63 66 72 75 82 89 97 101 90 97 94 90 85 79 71 68 59 58
69 61 55 47 42 34 20 21 26 27 26 25 23 20 20 21 21 25 31 34 37 36 41 46 53 58 60 62 71 77 84 93 101 93 100 101 87 83 78 71 61 60 59
71 66 58 50 42 31 24 28 31 29 29 29 28 28 27 29 29 30 36 37 36 37 39 42 51 50 57 59 66 75 78 82 88 93 92 104 83 84 80 81 75 65 59
75 67 59 52 45 37 31 36 35 35 34 34 33 34 35 35 37 38 39 41 44 42 44 49 50 49 51 56 60 65 72 80 86 87 82 88 93 93 92 85 69 50 44
77 70 62 56 48 46 36 42 43 39 38 39 39 40 42 42 45 45 46 50 50 47 49 53 49 46 52 53 55 65 66 74 88 91 71 73 91 98 95 83 69 70 71
79 74 67 60 54 53 40 51 50 43 43 43 44 46 48 49 50 50 52 52 53 53 59 61 57 55 54 55 55 55 59 66 72 84 73 80 85 82 68 68 88 84 79
Wind_Direction_850mb
223 205 208 204 195 285 304 271 304 262 345 340 348 358 0 7 10 14 20 26 41 23 15 22 29 34 33 29 22 15 355 316 297 304 319 5 355 342 342 330 329 330 331
219 228 217 198 213 254 291 259 294 256 294 6 341 352 7 28 33 45 54 56 51 39 32 27 22 15 21 20 28 32 27 8 311 293 294 290 310 320 336 335 332 327 321
234 219 208 203 215 231 276 251 271 238 291 318 329 54 65 64 74 76 76 75 71 63 52 44 36 27 17 9 3 14 18 340 338 332 335 327 292 294 285 301 324 328 322
221 215 220 210 237 272 237 245 236 227 259 151 121 107 97 94 88 83 80 73 62 52 40 31 22 15 9 6 2 2 357 351 345 341 331 319 310 295 285 281 279 284 307
210 206 209 248 250 228 238 222 208 220 171 146 133 119 108 101 92 83 68 51 36 23 14 8 1 356 352 349 345 344 342 338 338 337 331 324 319 310 300 287 275 273 277
196 209 232 235 223 219 207 207 214 172 158 147 137 130 118 103 86 65 38 26 13 5 1 357 355 354 350 346 342 338 333 328 323 323 322 316 313 310 309 305 294 282 275
234 228 228 217 210 201 205 182 185 170 156 152 150 139 134 120 66 353 2 8 1 0 357 354 353 350 348 346 342 338 334 329 325 321 317 313 310 307 305 302 299 299 292
218 210 210 193 189 195 191 168 171 169 164 165 178 178 196 266 297 313 328 344 353 353 351 351 348 347 345 343 341 337 334 331 326 320 315 312 311 308 304 301 298 296 295
198 201 195 191 185 185 172 159 153 157 170 171 182 208 206 222 298 292 316 340 347 350 352 350 347 348 345 342 338 334 332 327 322 318 316 312 307 305 304 303 300 297 296
192 193 189 181 174 168 168 166 158 160 153 156 150 146 134 75 20 303 309 329 350 354 353 350 348 346 345 343 338 331 330 328 324 321 317 313 311 308 305 304 305 305 302
188 184 180 175 175 175 173 167 161 159 150 139 115 84 39 18 10 3 343 341 347 354 353 347 346 345 345 341 337 335 335 331 327 323 320 316 313 310 308 304 304 305 307
183 179 177 178 179 176 171 168 165 164 159 139 81 51 30 22 8 5 352 345 345 345 345 344 342 344 340 339 336 331 332 329 327 325 321 319 315 312 309 311 310 308 305
183 181 182 181 181 179 174 172 168 162 142 103 65 38 24 14 8 360 353 347 344 342 343 343 342 340 341 338 334 333 332 328 326 324 321 318 316 317 317 315 312 310 305
184 182 182 182 181 180 179 175 171 161 129 94 53 40 28 19 8 359 355 350 346 341 339 342 340 340 338 337 335 332 329 327 325 323 323 319 318 321 318 316 311 305 305
185 184 184 184 184 182 176 171 168 160 142 109 70 43 30 16 4 356 351 347 345 339 334 337 335 339 338 339 339 336 333 329 328 325 323 322 323 322 319 316 313 309 306
189 187 186 186 185 180 178 176 174 168 151 124 85 56 29 8 360 351 349 345 343 338 330 333 338 339 339 340 339 336 334 331 330 330 326 322 321 318 315 313 312 309 307
192 191 189 189 187 185 183 183 179 173 169 176 161 125 16 351 348 348 346 344 341 339 334 337 339 339 339 338 337 337 336 337 336 334 331 327 319 315 313 311 308 307 304
195 195 193 191 189 187 186 179 182 188 196 200 197 191 335 345 347 349 346 345 343 339 335 337 340 340 341 342 340 339 339 340 337 336 334 327 318 314 311 310 308 304 303
197 195 195 192 190 188 185 181 188 201 209 213 219 242 301 340 349 348 348 345 341 341 337 333 335 342 343 342 338 336 334 336 337 337 334 332 322 317 312 308 308 303 301
200 198 193 191 189 187 185 187 206 220 219 222 226 240 278 323 341 344 343 341 341 339 333 333 338 341 341 340 334 334 333 335 333 336 337 333 329 322 316 311 308 308 307
200 198 194 190 189 188 186 206 231 227 229 231 235 246 267 291 315 331 334 337 337 332 334 336 336 336 335 333 332 332 330 331 332 339 334 332 330 329 328 324 321 317 312
200 197 196 196 192 190 202 232 232 235 237 237 242 252 265 276 299 313 319 324 327 332 331 326 329 327 326 327 329 328 329 330 329 338 330 328 334 331 330 325 318 312 308
202 201 200 197 195 198 213 234 238 244 245 247 250 258 267 277 289 300 306 312 318 324 323 315 316 319 319 326 324 325 325 323 322 328 330 327 337 329 331 328 324 321 313
208 205 203 201 198 232 217 239 243 248 252 254 256 261 268 275 284 291 297 302 311 316 318 313 314 316 316 320 318 318 319 318 318 326 335 324 334 328 328 330 336 333 323
210 211 210 206 222 242 224 240 245 250 257 261 262 265 269 276 281 290 298 301 305 309 310 306 303 306 312 315 316 314 319 320 322 325 337 328 329 327 327 329 335 328 327
217 215 213 226 234 248 225 242 247 252 260 267 269 270 274 277 282 287 291 294 298 305 303 302 309 311 312 314 315 314 319 320 323 323 329 328 328 333 324 325 322 328 330